カタログに戻る

METEOR 2-5 DEB

運用中PO
NORAD 31404·DEBRIS·🇷🇺 Russia

打ち上げ Oct 31, 1979 から Plesetsk Cosmodrome

Loading…

次のパス (今後24時間)

TLE

最新Source: Space-Track

元期: Sep 13, 2026, 11:18 UTC

1 31404U 79095T   26256.47083627  .00012920  00000-0  17125-2 0  9992
2 31404  81.1790 312.9434 0008361 151.9453 269.5661 14.79774322689613

AllMySatでMETEOR 2-5 DEBをリアルタイム追跡

Download on the App Store